FW6883 Weather Reports


time (UTC)temp
F
wind
direction
speed
knots
gust
knots
rain 1hr
in
rain 24hr
in
rain mn
in
humidity
%
barometer
mb
20260507093005 57 261 2.6 8.7 0.00 0.00 0.00 30 1012.1
20260507091503 56 260 1.7 7.0 0.00 0.00 0.00 31 1012.3
20260507090105 56 210 0.0 7.0 0.00 0.00 0.00 32 1012.7
20260507084600 56 230 0.9 3.5 0.00 0.00 0.00 32 1012.8
20260507083055 56 250 0.9 7.0 0.00 0.00 0.00 33 1012.8
20260507081554 55 248 0.0 3.5 0.00 0.00 0.00 34 1012.8
20260507080053 56 288 0.0 3.5 0.00 0.00 0.00 32 1012.8
20260507074551 54 150 0.9 3.5 0.00 0.00 0.00 41 1013.0
20260507073048 54 132 0.9 4.3 0.00 0.00 0.00 44 1013.2
20260507071540 56 170 0.9 4.3 0.00 0.00 0.00 33 1013.2
20260507070045 57 203 1.7 7.0 0.00 0.00 0.00 32 1013.3
20260507064538 56 251 0.9 10.4 0.00 0.00 0.00 32 1013.4
20260507063035 56 191 0.9 4.3 0.00 0.00 0.00 33 1013.5
20260507061529 56 197 1.7 5.2 0.00 0.00 0.00 33 1013.7
20260507060027 55 170 0.0 7.0 0.00 0.00 0.00 34 1013.6
20260507054523 53 228 0.9 4.3 0.00 0.00 0.00 41 1013.6
20260507053019 52 127 0.9 6.1 0.00 0.00 0.00 51 1013.6
20260507051517 52 111 1.7 7.8 0.00 0.00 0.00 53 1013.7
20260507050025 51 108 2.6 4.3 0.00 0.00 0.00 55 1014.0
20260507044513 51 111 0.9 2.6 0.00 0.00 0.00 56 1013.9
20260507043011 52 105 2.6 4.3 0.00 0.00 0.00 53 1013.7
20260507041510 52 105 1.7 4.3 0.00 0.00 0.00 52 1013.5
20260507040008 52 115 0.9 3.5 0.00 0.00 0.00 54 1013.5
20260507034505 53 107 1.7 4.3 0.00 0.00 0.00 53 1013.6
20260507033004 53 110 0.0 2.6 0.00 0.00 0.00 53 1013.4
20260507031502 53 148 0.0 1.7 0.00 0.00 0.00 51 1013.2
20260507030111 51 149 0.0 2.6 0.00 0.00 0.00 60 1013.1
20260507024610 50 205 0.0 2.6 0.00 0.00 0.00 63 1013.2
20260507023155 50 143 0.9 3.5 0.00 0.00 0.00 71 1013.3
20260507021557 51 98 1.7 6.1 0.00 0.00 0.00 68 1013.1
20260507020058 52 100 1.7 4.3 0.00 0.00 0.00 66 1013.0
20260507014555 52 105 4.3 9.6 0.00 0.00 0.00 65 1012.8
20260507013044 53 77 3.5 9.6 0.00 0.00 0.00 62 1013.2
20260507011547 54 108 3.5 8.7 0.00 0.00 0.00 61 1013.1
20260507010044 55 97 3.5 9.6 0.00 0.00 0.00 59 1013.0
20260507004538 55 100 3.5 9.6 0.00 0.00 0.00 60 1013.0
20260507003036 55 103 4.3 9.6 0.00 0.00 0.00 59 1013.2
20260507001536 55 103 2.6 8.7 0.00 0.00 0.00 59 1013.3
20260507000035 56 70 4.3 8.7 0.00 0.00 0.00 60 1013.0
20260506234528 55 103 4.3 9.6 0.00 0.00 0.00 58 1013.0
20260506233025 55 65 6.1 10.4 0.00 0.00 0.00 58 1013.2
20260506231522 55 94 3.5 8.7 0.00 0.00 0.00 56 1013.6
20260506230021 55 72 4.3 10.4 0.00 0.00 0.00 58 1013.4
20260506224518 55 72 4.3 11.3 0.00 0.00 0.00 58 1013.3
20260506223018 55 96 4.3 9.6 0.00 0.00 0.00 58 1013.8
20260506221511 56 105 3.5 7.8 0.00 0.00 0.00 57 1013.9
20260506220008 56 28 2.6 7.8 0.00 0.00 0.00 61 1013.9
20260506214504 55 115 2.6 7.0 0.00 0.00 0.00 60 1014.0
20260506213001 54 70 4.3 8.7 0.00 0.00 0.00 62 1014.3
20260506211600 54 72 2.6 8.7 0.00 0.00 0.00 63 1014.4
20260506210058 54 100 2.6 7.0 0.00 0.00 0.00 63 1014.5
20260506204559 54 103 2.6 6.1 0.00 0.00 0.00 62 1014.7
20260506203056 53 101 1.7 5.2 0.00 0.00 0.00 63 1015.0
20260506201556 52 91 1.7 5.2 0.00 0.00 0.00 64 1015.0
20260506200051 53 117 2.6 6.1 0.00 0.00 0.00 62 1015.0
20260506194549 53 94 2.6 5.2 0.00 0.00 0.00 62 1015.4
20260506193048 53 95 1.7 5.2 0.00 0.00 0.00 63 1015.4
20260506191544 54 29 2.6 7.0 0.00 0.00 0.00 63 1015.4
20260506190042 53 320 1.7 4.3 0.00 0.00 0.00 62 1015.5
20260506184545 53 53 0.0 2.6 0.00 0.00 0.00 65 1015.7
20260506183035 52 326 1.7 4.3 0.00 0.00 0.00 63 1015.8
20260506181533 52 342 2.6 5.2 0.00 0.00 0.00 63 1015.7
20260506180030 53 66 0.9 5.2 0.00 0.00 0.00 57 1015.7
20260506174527 52 274 3.5 6.1 0.00 0.04 0.00 55 1015.5
20260506173031 51 51 0.9 5.2 0.00 0.04 0.00 57 1015.5
20260506171625 52 297 3.5 6.1 0.00 0.04 0.00 59 1015.4
20260506170020 51 346 3.5 6.1 0.00 0.04 0.00 59 1015.4
20260506164515 50 297 4.3 7.0 0.00 0.09 0.00 56 1015.5
20260506163021 50 341 2.6 5.2 0.00 0.09 0.00 55 1015.5
20260506161507 49 326 1.7 4.3 0.00 0.09 0.00 60 1015.3
20260506160005 49 306 2.6 4.3 0.00 0.09 0.00 59 1015.3
20260506154604 49 42 0.0 2.6 0.00 0.11 0.00 57 1015.2
20260506153059 49 34 0.0 3.5 0.00 0.11 0.00 57 1015.1
20260506151553 48 26 0.9 2.6 0.00 0.11 0.00 55 1015.1
20260506150051 48 83 0.0 1.7 0.00 0.11 0.00 58 1015.2
20260506144547 47 84 0.0 0.0 0.00 0.14 0.00 59 1015.2
20260506143045 46 337 0.0 0.9 0.00 0.14 0.00 56 1015.1
20260506141537 43 339 0.0 0.9 0.00 0.14 0.00 58 1015.0
20260506140033 42 339 0.0 0.9 0.00 0.14 0.00 61 1014.9
20260506134529 42 310 0.0 0.9 0.00 0.18 0.00 62 1014.8
20260506133025 41 296 0.9 2.6 0.00 0.18 0.00 60 1014.6
20260506131619 40 309 0.0 0.0 0.00 0.18 0.00 69 1014.4
20260506130016 40 201 0.0 1.7 0.00 0.18 0.00 69 1014.3
20260506124514 39 115 0.9 1.7 0.00 0.22 0.00 72 1014.0
20260506123010 39 115 0.0 2.6 0.00 0.22 0.00 70 1013.9
20260506121510 39 125 0.9 1.7 0.00 0.22 0.00 74 1013.6
20260506120006 38 126 0.9 2.6 0.00 0.22 0.00 77 1013.6
20260506114503 38 121 0.0 1.7 0.00 0.22 0.00 77 1013.5
20260506113002 39 86 0.0 0.9 0.00 0.22 0.00 74 1013.6
20260506111558 39 171 0.0 1.7 0.00 0.22 0.00 78 1013.5
20260506110100 38 48 0.0 0.9 0.00 0.22 0.00 86 1013.4
20260506104555 38 34 0.0 0.9 0.00 0.22 0.00 93 1013.4
20260506103055 37 34 0.0 0.9 0.00 0.22 0.00 96 1013.4
20260506101552 37 300 0.0 1.7 0.00 0.22 0.00 96 1013.3
20260506100059 37 299 0.9 1.7 0.00 0.22 0.00 97 1013.3
20260506094536 36 241 0.0 1.7 0.00 0.22 0.00 97 1013.4